Weather Roundup
Issued by NWS

Home | Current Version | Previous Version | Graphics & Text | Print | Product List | Glossary Off
Versions: 1 2 3 4 5 6 7 8 9 10 11 12 13 14 15 16 17 18 19 20 21 22 23 24 25 26 27 28 29 30 31 32 33 34 35 36 37 38 39 40 41 42 43 44 45 46 47 48 49 50

793
NZUS93 KARX 281059
HRRWXR

CURRENT HOURLY OBSERVATIONS ACROSS
MUCH OF THE UPPER MISSISSIPPI VALLEY
NATIONAL WEATHER SERVICE LA CROSSE WI
600 AM CDT THU JUL 28 2016


...SOUTHEAST MINNESOTA...


CITY           SKY/WX    TMP DP  RH WIND       PRES   REMARKS
ROCHESTER      CLOUDY    66  65  96 N13       29.96S
ROCHESTER/MAYO CLOUDY    66  66 100 N7        29.96S
WINONA         CLOUDY    70  64  83 N6        29.93S
AUSTIN         CLOUDY    64  63  94 N8        29.96R
ALBERT LEA     CLOUDY    66  64  94 N6        29.97S
DODGE CENTER   CLOUDY    64  63  94 N8        29.97S
PRESTON        CLOUDY    65  64  94 N9        29.94S
OWATONNA       CLOUDY    66  63  88 N7        29.98R
FARIBAULT      CLOUDY    66  64  94 N6        29.98S
$$

...ELSEWHERE IN MINNESOTA...


CITY           SKY/WX    TMP DP  RH WIND       PRES   REMARKS
MINNEAPOLIS    CLOUDY    66  61  84 N9G18     29.99R
INTNL FALLS    CLEAR     55  52  89 NE3       30.10S
DULUTH         CLOUDY    56  54  93 NE6       30.07R
RED WING       CLOUDY    66  63  88 N7        29.95S
REDWOOD FALLS  CLOUDY    64  61  90 VRB5      30.02R
MANKATO        CLOUDY    64  59  82 N7        29.99S
WORTHINGTON    PTCLDY    59  57  93 N6        30.03R
FAIRMONT       CLOUDY    63  57  82 N10       29.99R
$$

...SOUTHWEST WISCONSIN...


CITY           SKY/WX    TMP DP  RH WIND       PRES   REMARKS
LA CROSSE      CLOUDY    68  66  93 N8        29.91R
PRAIRIE DU CHI CLOUDY    68  66  95 CALM      29.89S FOG
BOSCOBEL       FOG       68  67  96 CALM      29.91R VSB 1/4
LONE ROCK      CLOUDY    66  65  96 CALM      29.91S FOG
PLATTEVILLE    CLEAR     67  66  97 CALM      29.90F
FORT MC COY    LGT RAIN  67  66  99 N6        29.92S
CAMP DOUGLAS   CLOUDY    68  66  94 E8        29.92S
MAUSTON-NEW LI CLOUDY    68  67  95 SE5       29.92S
VIROQUA        CLOUDY    67  67 100 N3        29.93R VSB 1/2
WIS DELLS      NOT AVBL
$$

...ELSEWHERE IN WISCONSIN...


CITY           SKY/WX    TMP DP  RH WIND       PRES   REMARKS
MILWAUKEE      MOCLDY    69  66  90 NE8       29.92F
MADISON        MOCLDY    69  66  90 E8        29.91S
GREEN BAY      CLOUDY    64  64 100 NE10      29.98R
EAU CLAIRE     CLOUDY    65  65 100 N5        29.96R
BLACK RVR FLS  RAIN      66  66 100 N6        29.93R
MEDFORD        DRIZZLE   62  62 100 E5        29.99R
WAUSAU         LGT RAIN  60  58  92 NE6       29.98S
WIS RAPIDS     CLOUDY    66  63  90 E7        29.96R
MARSHFIELD     LGT RAIN  66  63  90 NE9       29.96R
RICE LAKE      CLOUDY    65  62  92 N8        30.01R
$$

...NORTHEAST IOWA...


CITY           SKY/WX    TMP DP  RH WIND       PRES   REMARKS
WATERLOO       PTCLDY    65  64  97 NW6       29.91F FOG
DUBUQUE        CLEAR     68  65  90 CALM      29.91S
DECORAH        CLOUDY    68  68 100 CALM      29.92R
MASON CITY     CLOUDY    65  64  97 NW9       29.98R
CHARLES CITY   CLOUDY    66  66 100 N8        29.94F
OELWEIN        PTCLDY    64  64 100 NW8       29.94R FOG
$$

...ELSEWHERE IN IOWA...


CITY           SKY/WX    TMP DP  RH WIND       PRES   REMARKS
DES MOINES     PTCLDY    70  66  87 N8        29.96R
IOWA CITY      CLEAR     70  67  90 NW7       29.91S
FORT DODGE     PTCLDY    63  61  94 NW3       29.98S
MARSHALLTOWN   MOCLDY    62  62 100 NW5       29.94S
CEDAR RAPIDS   CLEAR     67  67 100 NW9       29.90S
$$

...NORTHERN ILLINOIS...


CITY           SKY/WX    TMP DP  RH WIND       PRES   REMARKS
CHICAGO-OHARE  MOCLDY    73  66  78 NE3       29.90R
CHICAGO-MIDWAY MOCLDY    76  66  71 CALM      29.90R
MOLINE         CLEAR     68  65  90 W5        29.88S
ROCKFORD       PTCLDY    70  66  87 CALM      29.90F
PEORIA         PTCLDY    73  72  96 CALM      29.88S
$$

NOTE: "FAIR" INDICATES FEW OR NO CLOUDS BELOW 12,000 FEET WITH NO
SIGNIFICANT WEATHER AND/OR OBSTRUCTIONS TO VISIBILITY. WIND
SPEEDS ARE IN MILES-PER-HOUR.




USA.gov is the U.S. government's official web portal to all federal, state and local government web resources and services.